This is the latest recevied weather packets stored in our database for station/object W1SCW. If no packets are shown the sender has not sent any weather packets the latest 1 day(s).
| Time | Temp. | Humidity | Pressure | Rain* | Wind** | Luminosity | Snow |
|---|---|---|---|---|---|---|---|
| 1778052731 | 25° C | 93% | 1007.3 hPa | 0 mm | 0 m/s | 0 W/m² | - |
| 1778052427 | 25° C | 93% | 1007.3 hPa | 0 mm | 0.89 m/s, 166° | 0 W/m² | - |
| 1778052125 | 25° C | 92% | 1007.6 hPa | 0 mm | 0 m/s | 0 W/m² | - |
| 1778051822 | 25° C | 92% | 1007.5 hPa | 0 mm | 0.89 m/s, 190° | 0 W/m² | - |
| 1778051520 | 25° C | 92% | 1007.7 hPa | 0 mm | 1.34 m/s, 148° | 0 W/m² | - |
| 1778051217 | 25° C | 92% | 1007.7 hPa | 0 mm | 0.89 m/s, 184° | 0 W/m² | - |
| 1778050914 | 25° C | 92% | 1007.6 hPa | 0 mm | 1.34 m/s, 202° | 0 W/m² | - |
| 1778050612 | 25° C | 92% | 1007.6 hPa | 0 mm | 0 m/s | 0 W/m² | - |
| 1778050308 | 25° C | 92% | 1007.6 hPa | 0 mm | 1.34 m/s, 185° | 0 W/m² | - |
| 1778050005 | 25° C | 92% | 1007.7 hPa | 0 mm | 1.34 m/s, 182° | 0 W/m² | - |
| 1778049701 | 25° C | 92% | 1007.8 hPa | 0 mm | 0.45 m/s, 168° | 0 W/m² | - |
| 1778049400 | 25° C | 92% | 1007.5 hPa | 0 mm | 0.89 m/s, 223° | 0 W/m² | - |
| 1778049096 | 25° C | 92% | 1007.7 hPa | 0 mm | 1.34 m/s, 180° | 0 W/m² | - |
| 1778048795 | 25° C | 93% | 1007.6 hPa | 0 mm | 0.89 m/s, 172° | 0 W/m² | - |
| 1778048491 | 25° C | 93% | 1007.8 hPa | 0 mm | 1.79 m/s, 193° | 0 W/m² | - |
| 1778048187 | 25° C | 93% | 1007.8 hPa | 0 mm | 0.45 m/s, 203° | 0 W/m² | - |
| 1778047885 | 25° C | 93% | 1007.6 hPa | 0 mm | 1.79 m/s, 175° | 0 W/m² | - |
| 1778047583 | 25° C | 93% | 1007.7 hPa | 0 mm | 0 m/s | 0 W/m² | - |
| 1778047280 | 25° C | 93% | 1007.7 hPa | 0 mm | 0.45 m/s, 258° | 0 W/m² | - |
| 1778046977 | 25° C | 93% | 1007.8 hPa | 0 mm | 0.89 m/s, 169° | 0 W/m² | - |
| 1778046674 | 25° C | 93% | 1007.8 hPa | 0 mm | 0.45 m/s, 192° | 0 W/m² | - |
| 1778046371 | 25° C | 93% | 1007.8 hPa | 0 mm | 0.89 m/s, 144° | 0 W/m² | - |
| 1778046066 | 25° C | 93% | 1007.8 hPa | 0 mm | 0 m/s | 0 W/m² | - |
| 1778045765 | 25° C | 93% | 1007.6 hPa | 0 mm | 0.89 m/s, 140° | 0 W/m² | - |
| 1778045463 | 25° C | 92% | 1007.5 hPa | 0 mm | 0.89 m/s, 164° | 0 W/m² | - |
* Rain latest hour (hover to see other rain measurements)
** Current wind speed in m/s (hover to see current wind gust speed)